[[{"header":{"parameterUnit":"m.s-1","parameterCategory":1,"la1":30.2991,"la2":30.254,"lo1":-89.0895,"lo2":-89.0444,"dy":0.0017,"dx":0.0017,"nx":28,"ny":28,"refTime":"2024-12-03T09:00:00:Z","depth":0,"parameterNumber":2,"parameterNumberName":"U-component_of_WINDS"},"data":[0,0,0,0,0,0,0,0,0,0,0,0,0,0,0,0,0,0,0,0,0,0,0,0,0,0,0,0,0,0,0,0,0,0,0,0,0,0,0,0,0,0,0,0,0,0,0,0,0,0,0,0,0,0,0,0,0,0,-4.3906,-4.3907,0,-4.3958,-4.3959,-4.396,-4.3841,-4.3837,-4.3834,-4.383,-4.3882,-4.3887,-4.3892,0,0,0,0,0,0,0,0,0,0,0,0,0,-4.3702,-4.3706,-4.3906,-4.3907,-4.3907,-4.3958,-4.3959,-4.396,-4.3842,-4.3837,-4.3833,-4.3828,-4.3881,-4.3887,-4.3893,0,0,0,0,0,0,0,0,0,0,0,0,0,-4.3776,-4.3708,-4.3906,-4.3855,-4.3851,-4.3958,-4.3959,-4.396,-4.3843,-4.3837,-4.3831,-4.3826,-4.3879,-4.3886,-4.3893,-4.4053,0,0,-4.3916,-4.3919,0,0,0,0,0,0,0,0,-4.3772,-4.3784,-4.3862,-4.3858,-4.3854,-4.3887,-4.3906,-4.3991,-4.3844,-4.3846,-4.383,-4.3823,-4.3889,-4.3895,-4.3917,-4.4055,-4.4057,-4.3917,-4.3921,-4.3924,-4.3926,0,0,0,0,0,0,0,-4.3767,-4.3781,-4.3927,-4.3863,-4.3858,-4.3828,-4.3833,-4.3922,-4.3898,-4.3845,-4.3837,-4.3845,-4.3885,-4.391,-4.3917,-4.4058,-4.3916,-4.3923,-4.3928,-4.393,-4.4327,-4.4333,0,0,0,0,0,0,-4.3769,-4.3777,-4.3925,-4.3928,-4.3798,-4.3837,-4.3841,-4.3882,-4.3897,-4.3894,-4.3849,-4.3839,-4.39,-4.3909,-4.3919,-4.4104,-4.3924,-4.3931,-4.3935,-4.4321,-4.4329,-4.4335,0,0,0,0,0,0,-4.3765,-4.3783,-4.3923,-4.385,-4.3866,-4.3846,-4.3893,-4.3886,-4.3911,-4.39,-4.3895,-4.3879,-4.3896,-4.3908,-4.402,-4.4104,-4.3934,-4.3941,-4.4314,-4.4324,-4.4332,-4.4478,0,0,0,0,0,0,-4.3759,-4.3782,-4.3843,-4.3853,-4.387,-4.4024,-4.3899,-4.3892,-4.3924,-4.3911,-4.3927,-4.3924,-4.3893,-4.401,-4.4027,-4.4112,-4.3947,-4.4306,-4.4318,-4.4329,-4.4465,-4.4491,-4.4513,0,0,0,0,0,-4.3752,-4.3882,-4.3847,-4.3865,-4.3946,-4.4029,-4.4039,-4.4001,-4.3932,-4.3992,-4.3985,-4.3924,-4.4093,-4.4022,-4.4041,-4.4129,-4.4301,-4.4315,-4.4328,-4.4455,-4.4486,-4.4512,0,0,0,0,0,0,-4.3882,-4.3882,-4.3843,-4.398,-4.4006,-4.4009,-4.4084,-4.4035,-4.4081,-4.4066,-4.4017,-4.4021,-4.4142,-4.4147,-4.4067,-4.4283,-4.4185,-4.4203,-4.4275,-4.4304,-4.4327,-4.4322,-4.3953,0,0,0,0,0,-4.3927,-4.3995,-4.3991,-4.4112,-4.4127,-4.4104,-4.4139,-4.4107,-4.4131,-4.4141,-4.4142,-4.4168,-4.4226,-4.4266,-4.4319,-4.4466,-4.4467,-4.4536,-4.456,-4.4579,-4.4595,-4.4671,-4.4701,-4.438,-4.438,-4.438,0,0,-4.402,-4.4028,-4.4074,-4.4139,-4.4155,-4.4225,-4.4114,-4.4193,-4.4245,-4.4153,-4.4257,-4.426,-4.4285,-4.4414,-4.4471,-4.4422,-4.4684,-4.4597,-4.4612,-4.4617,-4.4688,-4.4718,-4.4745,-4.439,-4.4388,-4.4387,0,0,-4.4224,-4.4239,-4.434,-4.4358,-4.4384,-4.4368,-4.4392,-4.4403,-4.4401,-4.4506,-4.4438,-4.4498,-4.4601,-4.4621,-4.4645,-4.4857,-4.4801,-4.4876,-4.4999,-4.5073,-4.5098,-4.512,-4.5194,-4.5221,-4.4892,-4.4892,-4.4893,0,-4.4336,-4.444,-4.4398,-4.4482,-4.4512,-4.4433,-4.4534,-4.4554,-4.4596,-4.4618,-4.4563,-4.4689,-4.4701,-4.4832,-4.4884,-4.4907,-4.4932,-4.4873,-4.5098,-4.512,-4.514,-4.5209,-4.5237,-4.4901,-4.49,-4.4899,-4.4898,0,-4.4575,-4.4648,-4.4727,-4.4769,-4.4808,-4.49,-4.4872,-4.4916,-4.4882,-4.4871,-4.4978,-4.4989,-4.5042,-4.5072,-4.5039,-4.5199,-4.5167,-4.5107,-4.5007,-4.518,-4.5244,-4.527,-4.4914,-4.491,-4.4908,-4.4906,0,0,-4.486,-4.4879,-4.4908,-4.4925,-4.4948,-4.5004,-4.5093,-4.5145,-4.5183,-4.5215,-4.5287,-4.5376,-4.5319,-4.5346,-4.5315,-4.5381,-4.5546,-4.5311,-4.5311,-4.5352,-4.572,-4.5764,-4.5795,-4.551,-4.5515,-4.5519,-4.5717,0,-4.506,-4.5212,-4.5177,-4.5327,-4.5393,-4.532,-4.5397,-4.5419,-4.5411,-4.5466,-4.5457,-4.552,-4.5442,-4.5457,-4.552,-4.5513,-4.5618,-4.5498,-4.5575,-4.5578,-4.5568,-4.5829,-4.5876,-4.6062,-4.5742,-4.5746,-4.575,0,-4.5313,-4.5355,-4.5511,-4.5522,-4.5548,-4.5618,-4.5663,-4.5717,-4.574,-4.573,-4.576,-4.5716,-4.5803,-4.5705,-4.5823,-4.5742,-4.5771,-4.5773,-4.5779,-4.5782,-4.5672,-4.5837,-4.6121,-4.6148,-4.5789,-4.5786,-4.5783,0,-4.5503,-4.5598,-4.5703,-4.5721,-4.5737,-4.5787,-4.5796,-4.5814,-4.5848,-4.5887,-4.5908,-4.5958,-4.5984,-4.6023,-4.5993,-4.5925,-4.6115,-4.6015,-4.6107,-4.6108,-4.6148,-4.6145,-4.6438,-4.6173,-4.6172,-4.6172,-4.6171,0,-4.5728,-4.5826,-4.5788,-4.5853,-4.596,-4.5919,-4.6026,-4.6026,-4.6043,-4.6105,-4.6046,-4.6106,-4.6064,-4.612,-4.6098,-4.6197,-4.6211,-4.6204,-4.6196,-4.6207,-4.6208,-4.6224,-4.6209,-4.6179,-4.6177,-4.6176,-4.6175,0,-4.5956,-4.5936,-4.6045,-4.6051,-4.6055,-4.6134,-4.6139,-4.6198,-4.6187,-4.6267,-4.6283,-4.6265,-4.6328,-4.6303,-4.637,-4.6355,-4.6481,-4.6458,-4.6474,-4.6466,-4.6559,-4.655,-4.687,-4.6908,-4.6621,-4.6624,-4.6626,0,-4.61,-4.6173,-4.6188,-4.6225,-4.6239,-4.6301,-4.6334,-4.6297,-4.6335,-4.6366,-4.6422,-4.648,-4.6524,-4.6628,-4.662,-4.6671,-4.6647,-4.6756,-4.6654,-4.6663,-4.6645,-4.664,-4.6646,-4.6775,-4.6778,-4.6781,-4.6783,0,-4.6356,-4.6342,-4.6393,-4.6441,-4.6483,-4.6519,-4.6549,-4.6584,-4.6548,-4.6593,-4.6657,-4.6691,-4.676,-4.6817,-4.6862,-4.687,-4.6821,-4.6816,-4.6839,-4.685,-4.6855,-4.685,-4.6526,-4.6808,-4.6805,-4.6803,-4.6802,-4.6801,-4.6544,-4.6605,-4.6625,-4.6683,-4.6703,-4.6732,-4.6788,-4.6784,-4.6836,-4.6889,-4.6864,-4.6938,-4.6958,-4.7013,-4.7029,-4.7085,-4.7042,-4.7077,-4.7085,-4.7094,-4.7105,-4.6849,-4.7094,-4.7093,-4.7092,-4.7091,-4.7091,0,-4.6795,-4.6804,-4.6858,-4.6902,-4.6949,-4.6899,-4.693,-4.6972,-4.7037,-4.7061,-4.7105,-4.7178,-4.7234,-4.7231,-4.7282,-4.7328,-4.7306,-4.7342,-4.7337,-4.7339,-4.7141,-4.7114,-4.7359,-4.7359,-4.7359,-4.7359,-4.7359,-4.7358,-4.693,-4.703,-4.7018,-4.7127,-4.7135,-4.7206,-4.7228,-4.7255,-4.7273,-4.7357,-4.7403,-4.7401,-4.7414,-4.7466,-4.7514,-4.7512,-4.7532,-4.7576,-4.7566,-4.738,-4.7353,-4.7328,-4.7302,-4.7582,-4.7582,-4.7758,-4.776,-4.7761]},{"header":{"parameterUnit":"m.s-1","parameterCategory":1,"la1":30.2991,"la2":30.254,"lo1":-89.0895,"lo2":-89.0444,"dy":0.0017,"dx":0.0017,"nx":28,"ny":28,"refTime":"2024-12-03T09:00:00:Z","depth":0,"parameterNumber":3,"parameterNumberName":"V-component_of_WINDS"},"data":[0,0,0,0,0,0,0,0,0,0,0,0,0,0,0,0,0,0,0,0,0,0,0,0,0,0,0,0,0,0,0,0,0,0,0,0,0,0,0,0,0,0,0,0,0,0,0,0,0,0,0,0,0,0,0,0,0,0,-0.0252,-0.0253,0,-0.0276,-0.0276,-0.0276,-0.0323,-0.0324,-0.0325,-0.0326,-0.035,-0.035,-0.0349,0,0,0,0,0,0,0,0,0,0,0,0,0,-0.0248,-0.0248,-0.0252,-0.0253,-0.0253,-0.0276,-0.0276,-0.0276,-0.0323,-0.0324,-0.0325,-0.0326,-0.035,-0.035,-0.0349,0,0,0,0,0,0,0,0,0,0,0,0,0,-0.0258,-0.0248,-0.0252,-0.0279,-0.0282,-0.0275,-0.0276,-0.0276,-0.0323,-0.0324,-0.0325,-0.0327,-0.035,-0.035,-0.0349,-0.0319,0,0,-0.0348,-0.0348,0,0,0,0,0,0,0,0,-0.0258,-0.0258,-0.0275,-0.0277,-0.028,-0.0298,-0.0283,-0.0291,-0.0322,-0.0307,-0.0326,-0.0327,-0.0331,-0.0333,-0.0334,-0.032,-0.0322,-0.0348,-0.0348,-0.0348,-0.0348,0,0,0,0,0,0,0,-0.0257,-0.0258,-0.0262,-0.0275,-0.0278,-0.029,-0.0293,-0.0285,-0.0311,-0.0308,-0.0312,-0.0314,-0.0333,-0.0334,-0.0335,-0.0322,-0.0348,-0.0348,-0.0348,-0.0348,-0.0284,-0.0282,0,0,0,0,0,0,-0.0252,-0.0257,-0.0261,-0.0262,-0.0272,-0.0288,-0.0292,-0.0291,-0.0311,-0.0316,-0.0313,-0.0316,-0.0334,-0.0335,-0.0336,-0.0302,-0.0348,-0.0348,-0.0347,-0.0285,-0.0283,-0.0282,0,0,0,0,0,0,-0.0252,-0.0252,-0.026,-0.026,-0.0262,-0.0287,-0.0285,-0.029,-0.0292,-0.0315,-0.0319,-0.0309,-0.0335,-0.0336,-0.0323,-0.0303,-0.0347,-0.0347,-0.0287,-0.0285,-0.0283,-0.0233,0,0,0,0,0,0,-0.0252,-0.0252,-0.0241,-0.026,-0.0262,-0.0246,-0.0284,-0.029,-0.0291,-0.0295,-0.0312,-0.0317,-0.0336,-0.0323,-0.0322,-0.0303,-0.0347,-0.0289,-0.0286,-0.0283,-0.0236,-0.0229,-0.0223,0,0,0,0,0,-0.0251,-0.0226,-0.024,-0.024,-0.0249,-0.0245,-0.0246,-0.027,-0.0289,-0.0278,-0.0293,-0.0316,-0.0305,-0.0321,-0.0321,-0.0301,-0.029,-0.0287,-0.0284,-0.0239,-0.023,-0.0223,0,0,0,0,0,0,-0.0205,-0.0229,-0.0245,-0.0225,-0.0233,-0.0253,-0.024,-0.026,-0.0262,-0.0266,-0.0295,-0.0299,-0.0281,-0.029,-0.0307,-0.0273,-0.0301,-0.0298,-0.0268,-0.026,-0.0253,-0.0251,-0.0347,0,0,0,0,0,-0.0192,-0.0187,-0.0209,-0.0189,-0.0192,-0.0215,-0.0214,-0.0232,-0.0241,-0.0244,-0.0258,-0.0266,-0.0264,-0.0262,-0.0262,-0.0238,-0.0242,-0.0224,-0.0217,-0.0212,-0.0208,-0.0195,-0.0187,-0.0271,-0.0271,-0.0271,0,0,-0.0166,-0.0179,-0.0174,-0.018,-0.0188,-0.0182,-0.0218,-0.021,-0.0206,-0.0243,-0.0231,-0.0241,-0.0252,-0.0232,-0.0224,-0.0239,-0.0186,-0.0207,-0.0203,-0.0202,-0.0191,-0.0183,-0.0176,-0.0268,-0.0269,-0.0269,0,0,-0.0115,-0.0125,-0.0109,-0.0116,-0.0127,-0.0142,-0.0138,-0.0156,-0.0164,-0.0152,-0.0179,-0.0175,-0.0171,-0.0177,-0.018,-0.013,-0.0151,-0.0129,-0.0094,-0.0081,-0.0075,-0.0069,-0.005,-0.0044,-0.0126,-0.0126,-0.0126,0,-0.0082,-0.0074,-0.0099,-0.0089,-0.009,-0.0123,-0.0107,-0.0113,-0.0123,-0.0123,-0.014,-0.0136,-0.0145,-0.0127,-0.0115,-0.0116,-0.0112,-0.0128,-0.0073,-0.0068,-0.0063,-0.0046,-0.0039,-0.0123,-0.0123,-0.0123,-0.0124,0,-0.0031,-0.0025,-0.0011,-0.002,-0.002,-0.0007,-0.0029,-0.0026,-0.0043,-0.0056,-0.0043,-0.0056,-0.0058,-0.0055,-0.0072,-0.0039,-0.0048,-0.0068,-0.0097,-0.0052,-0.0036,-0.003,-0.0119,-0.012,-0.0121,-0.0121,0,0,0.0047,0.0026,0.0031,0.0027,0.0013,0.0017,0.0029,0.0027,0.0031,0.0025,0.0034,0.0039,0.002,0.0017,-0.0,0.0011,0.0053,-0.0011,-0.0011,0.0002,0.0089,0.0104,0.0112,0.0038,0.004,0.004,0.009,0,0.0095,0.0114,0.0092,0.0116,0.0122,0.0091,0.0101,0.0094,0.0082,0.0086,0.0072,0.0076,0.0051,0.0049,0.0059,0.0045,0.007,0.0042,0.0047,0.0048,0.0051,0.012,0.0137,0.0184,0.0096,0.0097,0.0097,0,0.0153,0.0151,0.0175,0.016,0.0162,0.0171,0.0168,0.0172,0.0163,0.0154,0.0151,0.0131,0.0142,0.0114,0.0129,0.011,0.0112,0.0105,0.0107,0.0106,0.0075,0.0122,0.0198,0.0205,0.0107,0.0106,0.0105,0,0.0209,0.0211,0.0226,0.0224,0.0207,0.0215,0.0208,0.0198,0.0198,0.0196,0.0196,0.0195,0.0194,0.0194,0.0174,0.0155,0.0192,0.0162,0.0185,0.0185,0.0193,0.0193,0.0271,0.0194,0.0194,0.0194,0.0194,0,0.0264,0.028,0.0251,0.0261,0.0278,0.0253,0.0271,0.0262,0.0253,0.026,0.0234,0.0241,0.0214,0.0219,0.0203,0.0218,0.0218,0.0211,0.0207,0.0214,0.0215,0.0214,0.021,0.0196,0.0195,0.0195,0.0195,0,0.0329,0.031,0.0325,0.0308,0.0304,0.0318,0.0303,0.0311,0.0298,0.0308,0.0308,0.0288,0.0292,0.0272,0.0272,0.0262,0.0285,0.0275,0.0288,0.0285,0.0309,0.0308,0.0389,0.0399,0.0316,0.0317,0.0318,0,0.0366,0.0377,0.0362,0.0365,0.036,0.0365,0.0366,0.0342,0.0344,0.0336,0.0345,0.0347,0.0348,0.0356,0.0341,0.0342,0.0332,0.036,0.0332,0.0338,0.0333,0.0332,0.0333,0.0366,0.0367,0.0368,0.0369,0,0.0433,0.0423,0.0425,0.0424,0.0426,0.0424,0.042,0.0424,0.0399,0.0403,0.0407,0.0407,0.0408,0.0411,0.0409,0.0402,0.0382,0.0378,0.0383,0.039,0.0398,0.0395,0.0305,0.0376,0.0376,0.0375,0.0375,0.0374,0.0485,0.0494,0.0485,0.0489,0.0484,0.0481,0.0488,0.0476,0.0479,0.0478,0.0465,0.0472,0.0464,0.0459,0.0454,0.046,0.0446,0.0454,0.0456,0.0458,0.0462,0.0397,0.0459,0.0459,0.0459,0.0458,0.0458,0,0.0551,0.0544,0.0547,0.0543,0.0546,0.0527,0.0522,0.0526,0.0533,0.0527,0.0528,0.0534,0.0536,0.0522,0.0523,0.053,0.0521,0.0531,0.0531,0.053,0.0474,0.047,0.0539,0.0539,0.0539,0.0539,0.0539,0.0539,0.0586,0.0601,0.0591,0.0603,0.0596,0.0603,0.0602,0.06,0.0595,0.0602,0.0605,0.0596,0.0587,0.0587,0.0589,0.0585,0.0586,0.06,0.0593,0.0541,0.0533,0.0526,0.0521,0.0601,0.0601,0.0648,0.0648,0.0649]}]]